When you browse on this site, cookies collect data to enhance your experience and personalize the content and advertising you see.
Visit our Privacy Policy to learn more. By continuing to use the site, you agree to this use of cookies and data.
  • In Hungary
  • List of Countries
  • For 7 days
  • Water Temperature
  • Satellite Maps
  • Weather Map
  • News
  • Weather Widgets
  • user-avatar
    Login

    Hourly Weather Pingdu

    Today, 19 April, Friday

    Time Temperature Precipitation Wind Pressure Humidity
    00:00 +10°C° 0 mm 2 mps 758 mmHg 40%
    01:00 +9°C° 0 mm 2 mps 758 mmHg 39%
    02:00 +10°C° 0 mm 1 mps 757 mmHg 42%
    03:00 +10°C° 0 mm 1 mps 758 mmHg 41%
    04:00 +9°C° 0 mm 2 mps 758 mmHg 40%
    05:00 +9°C° 0 mm 2 mps 758 mmHg 39%
    06:00 +10°C° 0 mm 3 mps 758 mmHg 38%
    07:00 +12°C° 0 mm 3 mps 758 mmHg 36%
    08:00 +13°C° 0 mm 4 mps 759 mmHg 34%
    09:00 +16°C° 0 mm 3 mps 759 mmHg 30%
    10:00 +17°C° 0 mm 3 mps 759 mmHg 26%
    11:00 +19°C° 0 mm 3 mps 759 mmHg 21%
    12:00 +20°C° 0 mm 3 mps 758 mmHg 20%
    13:00 +21°C° 0 mm 3 mps 758 mmHg 19%
    14:00 +22°C° 0 mm 3 mps 758 mmHg 18%
    15:00 +22°C° 0 mm 3 mps 758 mmHg 19%
    16:00 +22°C° 0 mm 3 mps 757 mmHg 21%
    17:00 +21°C° 0 mm 4 mps 757 mmHg 22%
    18:00 +19°C° 0 mm 3 mps 757 mmHg 27%
    19:00 +17°C° 0 mm 3 mps 757 mmHg 32%
    20:00 +13°C° 0 mm 3 mps 757 mmHg 36%
    21:00 +14°C° 0 mm 2 mps 757 mmHg 40%
    22:00 +13°C° 0 mm 2 mps 757 mmHg 44%
    23:00 +12°C° 0 mm 2 mps 757 mmHg 47%

    Tomorrow, 20 April, Saturday

    Time Temperature Precipitation Wind Pressure Humidity
    00:00 +10°C° 0 mm 2 mps 757 mmHg 50%
    01:00 +10°C° 0 mm 2 mps 757 mmHg 53%
    02:00 +9°C° 0 mm 2 mps 756 mmHg 56%
    03:00 +9°C° 0 mm 2 mps 756 mmHg 57%
    04:00 +9°C° 0 mm 2 mps 756 mmHg 58%
    05:00 +9°C° 0 mm 2 mps 756 mmHg 58%
    06:00 +10°C° 0 mm 2 mps 756 mmHg 54%
    07:00 +13°C° 0 mm 2 mps 756 mmHg 50%
    08:00 +13°C° 0 mm 3 mps 756 mmHg 45%
    09:00 +17°C° 0 mm 3 mps 755 mmHg 41%
    10:00 +19°C° 0 mm 3 mps 755 mmHg 37%
    11:00 +22°C° 0 mm 3 mps 755 mmHg 32%
    12:00 +24°C° 0 mm 3 mps 755 mmHg 33%
    13:00 +25°C° 0 mm 2 mps 755 mmHg 35%
    14:00 +26°C° 0 mm 2 mps 754 mmHg 36%
    15:00 +26°C° 0 mm 2 mps 754 mmHg 37%
    16:00 +25°C° 0 mm 3 mps 754 mmHg 39%
    17:00 +24°C° 0 mm 3 mps 754 mmHg 41%
    18:00 +21°C° 0 mm 3 mps 755 mmHg 46%
    19:00 +19°C° 0 mm 3 mps 755 mmHg 51%
    20:00 +17°C° 0 mm 3 mps 756 mmHg 56%
    21:00 +16°C° 0 mm 3 mps 756 mmHg 58%
    22:00 +16°C° 0 mm 2 mps 756 mmHg 60%
    23:00 +15°C° 0 mm 2 mps 756 mmHg 61%

    Day after tomorrow, 21 April, Sunday

    Time Temperature Precipitation Wind Pressure Humidity
    00:00 +15°C° 0 mm 2 mps 756 mmHg 56%
    01:00 +15°C° 0 mm 2 mps 756 mmHg 51%
    02:00 +15°C° 0 mm 2 mps 756 mmHg 46%
    03:00 +13°C° 0.1 mm 3 mps 756 mmHg 47%
    04:00 +13°C° 0.1 mm 3 mps 757 mmHg 48%
    05:00 +12°C° 0.1 mm 3 mps 757 mmHg 49%
    06:00 +13°C° 0.2 mm 2 mps 757 mmHg 56%
    07:00 +14°C° 0.2 mm 2 mps 757 mmHg 63%
    08:00 +14°C° 0.2 mm 2 mps 758 mmHg 70%
    09:00 +15°C° 0.1 mm 1 mps 758 mmHg 66%
    10:00 +18°C° 0.1 mm 1 mps 758 mmHg 62%
    11:00 +19°C° 0.1 mm 1 mps 758 mmHg 59%
    12:00 +20°C° 0 mm 1 mps 757 mmHg 56%
    13:00 +21°C° 0 mm 1 mps 757 mmHg 54%
    14:00 +22°C° 0 mm 1 mps 757 mmHg 51%
    15:00 +22°C° 0 mm 1 mps 757 mmHg 52%
    16:00 +22°C° 0 mm 1 mps 756 mmHg 52%
    17:00 +20°C° 0 mm 2 mps 756 mmHg 53%
    18:00 +19°C° 0 mm 2 mps 756 mmHg 57%
    19:00 +18°C° 0 mm 2 mps 756 mmHg 60%
    20:00 +17°C° 0 mm 2 mps 757 mmHg 64%
    21:00 +16°C° 0 mm 2 mps 757 mmHg 65%
    22:00 +15°C° 0 mm 2 mps 757 mmHg 66%
    23:00 +15°C° 0 mm 2 mps 757 mmHg 67%

    22 April, Monday

    Time Temperature Precipitation Wind Pressure Humidity
    00:00 +14°C° 0 mm 2 mps 757 mmHg 68%
    01:00 +14°C° 0 mm 2 mps 756 mmHg 69%
    02:00 +13°C° 0 mm 1 mps 756 mmHg 70%
    03:00 +13°C° 0 mm 1 mps 756 mmHg 72%
    04:00 +13°C° 0 mm 1 mps 756 mmHg 73%
    05:00 +12°C° 0 mm 1 mps 756 mmHg 75%
    06:00 +14°C° 0 mm 2 mps 756 mmHg 70%
    07:00 +15°C° 0 mm 2 mps 756 mmHg 66%
    08:00 +17°C° 0 mm 3 mps 756 mmHg 61%
    09:00 +19°C° 0 mm 3 mps 756 mmHg 57%
    10:00 +21°C° 0 mm 3 mps 756 mmHg 53%
    11:00 +22°C° 0 mm 3 mps 756 mmHg 49%
    12:00 +23°C° 0 mm 4 mps 756 mmHg 49%
    13:00 +23°C° 0 mm 4 mps 755 mmHg 48%
    14:00 +25°C° 0 mm 5 mps 755 mmHg 48%
    15:00 +23°C° 0 mm 5 mps 754 mmHg 49%
    16:00 +23°C° 0 mm 5 mps 754 mmHg 50%
    17:00 +22°C° 0 mm 5 mps 754 mmHg 50%
    18:00 +21°C° 0 mm 4 mps 754 mmHg 57%
    19:00 +19°C° 0 mm 4 mps 754 mmHg 64%
    20:00 +17°C° 0 mm 3 mps 755 mmHg 71%
    21:00 +16°C° 0 mm 3 mps 755 mmHg 76%
    22:00 +16°C° 0 mm 3 mps 755 mmHg 81%
    23:00 +14°C° 0 mm 3 mps 755 mmHg 86%

    23 April, Tuesday

    Time Temperature Precipitation Wind Pressure Humidity
    00:00 +14°C° 0 mm 3 mps 755 mmHg 89%
    01:00 +14°C° 0 mm 2 mps 755 mmHg 92%
    02:00 +14°C° 0 mm 2 mps 754 mmHg 95%
    03:00 +14°C° 0 mm 2 mps 754 mmHg 95%
    04:00 +14°C° 0 mm 2 mps 754 mmHg 96%
    05:00 +14°C° 0 mm 2 mps 754 mmHg 96%
    06:00 +14°C° 0 mm 3 mps 754 mmHg 90%
    07:00 +17°C° 0 mm 3 mps 755 mmHg 83%
    08:00 +18°C° 0 mm 3 mps 755 mmHg 76%
    09:00 +20°C° 0 mm 4 mps 755 mmHg 72%
    10:00 +21°C° 0 mm 4 mps 755 mmHg 68%
    11:00 +23°C° 0 mm 5 mps 755 mmHg 63%
    12:00 +22°C° 0 mm 5 mps 755 mmHg 66%
    13:00 +21°C° 0 mm 5 mps 755 mmHg 69%
    14:00 +20°C° 0 mm 5 mps 754 mmHg 72%
    15:00 +20°C° 0.1 mm 5 mps 754 mmHg 73%
    16:00 +19°C° 0.1 mm 4 mps 754 mmHg 74%
    17:00 +19°C° 0.1 mm 4 mps 754 mmHg 76%
    18:00 +18°C° 0.3 mm 4 mps 754 mmHg 79%
    19:00 +17°C° 0.3 mm 4 mps 754 mmHg 82%
    20:00 +16°C° 0.3 mm 3 mps 755 mmHg 86%
    21:00 +16°C° 0.8 mm 3 mps 754 mmHg 87%
    22:00 +15°C° 0.8 mm 4 mps 754 mmHg 88%
    23:00 +15°C° 0.8 mm 4 mps 754 mmHg 89%

    24 April, Wednesday

    Time Temperature Precipitation Wind Pressure Humidity
    00:00 +16°C° 1.4 mm 3 mps 754 mmHg 90%
    01:00 +16°C° 1.4 mm 3 mps 753 mmHg 91%
    02:00 +16°C° 1.4 mm 3 mps 753 mmHg 91%
    03:00 +16°C° 2.6 mm 3 mps 752 mmHg 92%
    04:00 +16°C° 2.6 mm 2 mps 752 mmHg 93%
    05:00 +16°C° 2.6 mm 2 mps 752 mmHg 94%
    06:00 +16°C° 0.7 mm 3 mps 752 mmHg 93%
    07:00 +16°C° 0.7 mm 3 mps 752 mmHg 93%
    08:00 +16°C° 0.7 mm 3 mps 752 mmHg 92%
    09:00 +17°C° 0 mm 3 mps 752 mmHg 88%
    10:00 +18°C° 0 mm 3 mps 752 mmHg 85%
    11:00 +19°C° 0 mm 3 mps 751 mmHg 81%
    12:00 +20°C° 0 mm 2 mps 751 mmHg 77%
    13:00 +21°C° 0 mm 2 mps 750 mmHg 74%
    14:00 +23°C° 0 mm 2 mps 750 mmHg 70%
    15:00 +23°C° 0 mm 2 mps 750 mmHg 70%
    16:00 +23°C° 0 mm 2 mps 750 mmHg 71%
    17:00 +21°C° 0 mm 2 mps 750 mmHg 71%
    18:00 +20°C° 0 mm 2 mps 750 mmHg 77%
    19:00 +19°C° 0 mm 2 mps 750 mmHg 82%
    20:00 +17°C° 0 mm 2 mps 751 mmHg 88%
    21:00 +17°C° 0 mm 2 mps 751 mmHg 89%
    22:00 +16°C° 0 mm 1 mps 751 mmHg 90%
    23:00 +16°C° 0 mm 1 mps 751 mmHg 92%
    Show more